Regional Weather Roundup
Issued by NWS State College, PA

Home | Current Version | Previous Version | Graphics & Text | Print | Product List | Glossary On
Versions: 1 2 3 4 5 6 7 8 9 10 11 12 13 14 15 16 17 18 19 20 21 22 23 24 25 26 27 28 29 30 31 32 33 34 35 36 37 38 39 40 41 42 43 44 45 46 47 48 49 50
741
ASUS41 KCTP 181103
RWRCTP

REGIONAL WEATHER ROUNDUP
NATIONAL WEATHER SERVICE STATE COLLEGE PA
600 AM EST WED JAN 18 2017

Note: "fair" indicates few or no clouds below 12,000 feet with no
significant weather and/or obstructions to visibility.

* = STATION THAT DOES NOT REPORT PRECIPITATION /E.G. RAIN...SNOW...ETC/
    THUNDER OR FOG.

PAZ002>004-007>009-013>016-020>023-029>032-181200-
WESTERN PENNSYLVANIA

CITY           SKY/WX    TMP DP  RH WIND       PRES   REMARKS
ERIE           CLOUDY    38  36  92 W15G23    29.97R FOG
MEADVILLE      CLOUDY    37  35  92 W13G18    29.95R
FRANKLIN*        N/A     37  34  87 W12G20    29.95R
NEW CASTLE     CLOUDY    41  40  96 W6        29.98R
BEAVER COUNTY  NOT AVBL
BUTLER*        CLOUDY    43  39  87 W9        29.97S
PITTSBURGH INT LGT RAIN  43  43 100 W14       29.96R FOG
PITTSBURGH     LGT RAIN  44  40  85 W14G21    29.95R FOG
INDIANA*       CLOUDY    45  45 100 NW9       29.95R FOG
LATROBE        LGT RAIN  45  43  93 W7        29.96R
WASHINGTON CO* NOT AVBL
$$

PAZ004>006-010>012-017>019-024>028-033>037-041-042-045-046-049>053-181200-
CENTRAL PENNSYLVANIA

CITY           SKY/WX    TMP DP  RH WIND       PRES   REMARKS
BRADFORD       LGT RAIN  38  37  97 W14G24    29.87R
DUBOIS         CLOUDY    42  38  85 W15       29.89R FOG
CLEARFIELD     CLOUDY    44  42  93 W10G21    29.89R
JOHNSTOWN      LGT RAIN  43  41  93 W14G20    29.88R
ALTOONA        CLOUDY    47  41  80 NW14      29.89F
STATE COLLEGE  CLOUDY    37  37 100 CALM      29.88S FOG
WILLIAMSPORT   FOG       38  36  92 W3        29.90R VSB 1/4
SELINSGROVE    FOG       35  35 100 CALM      29.91R VSB 1/4
FT INDIANTOWN  CLOUDY    37  37 100 SW3       29.91R
CAPITAL CITY   FOG       39  38  96 CALM      29.92R VSB 1/4
HARRISBURG     FOG       38  38 100 NW3       29.92R VSB 1/8
YORK           LGT RAIN  39  39 100 CALM      29.91S VSB 1/4
$$

PAZ038>040-043-044-047-048-054-055-060>062-067>071-181200-
EASTERN PENNSYLVANIA

CITY           SKY/WX    TMP DP  RH WIND       PRES   REMARKS
SCRANTON       LGT RAIN  36  34  92 CALM      29.88R FOG
MOUNT POCONO   FOG       33  31  92 CALM      29.84S VSB 1/2
ALLENTOWN      CLOUDY    37  34  89 NE3       29.91R
QUAKERTOWN*    CLOUDY    36  36 100 N3        29.91R
READING        CLOUDY    38  35  89 N3        29.90R VSB 1
LANCASTER      FOG       39  39 100 W5        29.91R VSB 1/4
COATESVILLE    CLOUDY    39  39 100 NW6       29.90S FOG
POTTSTOWN      CLOUDY    37  37 100 W3        29.92R
BLUE BELL      CLOUDY    37  37 100 CALM      29.89R
DOYLESTOWN     CLOUDY    39  38  96 NW5       29.89R FOG
WILLOW GROVE   NOT AVBL
NORTH PHILA    CLOUDY    40  39  97 NW3       29.91R FOG
PHILADELPHIA   CLOUDY    42  40  92 N7        29.90S
$$




USA.gov is the U.S. government's official web portal to all federal, state and local government web resources and services.